Miscellaneous Local Product
Issued by NWS Hastings, NE

Home | Current Version | Previous Version | Graphics & Text | Print | Product List | Glossary On
Versions: 1 2 3 4 5 6 7 8 9 10 11 12 13 14 15 16 17 18 19 20 21 22 23 24 25 26 27 28 29 30 31 32 33 34 35 36 37 38 39 40 41 42 43 44 45 46 47 48 49 50
094
AXUS43 KGID 090902
MISGRI

GID CWA HOURLY WEATHER ROUNDUP
NATIONAL WEATHER SERVICE HASTINGS NE
300 AM CST TUE FEB 09 2016

NOTE: "FAIR" INDICATES FEW OR NO CLOUDS BELOW 12,000 FEET WITH NO
SIGNIFICANT WEATHER AND/OR OBSTRUCTIONS TO VISIBILITY.

...SOUTH CENTRAL NEBRASKA...

CITY           SKY/WX    TMP DP  RH WIND       PRES   REMARKS
GRAND ISLAND   CLEAR     19  12  74 NW9       30.16R WCI   8
HASTINGS       CLEAR     20  12  71 NW13      30.15S WCI   7
ORD            CLEAR     25  17  72 NW15      30.15R WCI  13
YORK           CLEAR     21  18  86 NW9       30.14R WCI  11
AURORA         CLEAR     22  16  77 NW14      30.13S WCI   9
LEXINGTON      CLOUDY    28  19  69 NW12      30.18R WCI  18
HOLDREGE       MOCLDY    26  18  70 W7        30.16S WCI  18
HEBRON         CLEAR     26  18  72 NW7       30.15S WCI  18

...NEBRASKA PANHANDLE...

CITY           SKY/WX    TMP DP  RH WIND       PRES   REMARKS
CHADRON        PTCLDY    33  26  75 NW9       30.23S WCI  25
ALLIANCE       CLOUDY    36  27  69 NW14      30.19S WCI  27
SCOTTSBLUFF    CLOUDY    33  26  75 NW10      30.24S WCI  25
SIDNEY         MOCLDY    32  24  72 W14       30.23R WCI  22

...WESTERN AND NORTH CENTRAL NEBRASKA...

CITY           SKY/WX    TMP DP  RH WIND       PRES   REMARKS
VALENTINE      CLOUDY    28  18  66 NW8       30.21R WCI  20
AINSWORTH      CLOUDY    29  17  62 N17G25    30.17F WCI  17
ONEILL         CLEAR     22  14  71 N13       30.17S WCI  10
BROKEN BOW     CLOUDY    31  18  58 N15       30.15S WCI  20
IMPERIAL       CLOUDY    30  23  75 NW8       30.22S WCI  22
NORTH PLATTE   CLOUDY    25  19  78 NW8       30.19F WCI  16
MCCOOK         CLOUDY    30  21  69 W10       30.21F WCI  21

...EASTERN NEBRASKA...

CITY           SKY/WX    TMP DP  RH WIND       PRES   REMARKS
NORFOLK        PTCLDY    20  10  65 N21G28    30.14R WCI   4
SO SIOUX CITY  CLEAR     16   7  67 N22G29    30.13R WCI  -2
TEKAMAH        CLOUDY    20   9  62 N17       30.13R WCI   5
COLUMBUS       PTCLDY    21   7  53 NW12      30.14R WCI   9
ALBION         CLEAR     23  12  62 N17G29    30.13R WCI   9
OMAHA EPPLEY   PTCLDY    19  11  70 N21G28    30.10R WCI   3
OFFUTT AFB     CLEAR     21   9  59 NW16G22   30.09R WCI   7
MILLARD        CLOUDY    23  12  64 NW15G22   30.10S WCI  10
LINCOLN        PTCLDY    24  13  62 N17       30.14R WCI  11
NEBRASKA CITY  PTCLDY    23  11  59 N21G32    30.08R WCI   8
BEATRICE       CLEAR     27  19  72 NW14      30.12S WCI  15
FALLS CITY     CLEAR     25  10  53 N18G35    30.07S WCI  11

...NORTHERN KANSAS...

CITY           SKY/WX    TMP DP  RH WIND       PRES   REMARKS
GOODLAND       CLOUDY    25  21  85 NW5       30.22S WCI  19
HILL CITY      CLOUDY    35  24  64 W8        30.21F WCI  29
NORTON         CLOUDY    34  21  60 W14       30.19R WCI  24
PHILLIPSBURG   CLOUDY    34  23  64 CALM      30.20S
SMITH CENTER   MOCLDY    27  19  74 CALM      30.19S
BELOIT         CLEAR     27  18  69 NW7       30.17F WCI  19
HAYS           CLOUDY    36  18  48 NW10      30.20S WCI  28
RUSSELL        CLOUDY    34  21  59 NW12      30.18R WCI  25
CONCORDIA      CLEAR     29  17  61 NW13      30.15F WCI  19
SALINA         CLEAR     30  18  60 NW12      30.17F WCI  20
TOPEKA         PTCLDY    31  19  61 NW13G23   30.09S WCI  21



USA.gov is the U.S. government's official web portal to all federal, state and local government web resources and services.